KE5VT Weather Reports


Display with metric or nautical units.
time (UTC)temp
F
wind
direction
speed
MPH
gust
MPH
rain 1hr
in
rain 24hr
in
rain mn
in
humidity
%
barometer
mb
20260906064301 72 248 2.0 2.0 0.00 0.00 0.00 95 1007.9
20260906063755 72 278 4.0 4.0 0.00 0.00 0.00 95 1008.1
20260906063251 72 243 1.0 2.0 0.00 0.00 0.00 95 1007.8
20260906062746 72 270 3.0 3.0 0.00 0.00 0.00 95 1007.8
20260906062245 72 297 3.0 3.0 0.00 0.00 0.00 95 1007.8
20260906061741 72 230 2.0 2.0 0.00 0.00 0.00 94 1008.0
20260906061237 72 263 3.0 3.0 0.00 0.00 0.00 94 1008.2
20260906060732 72 271 2.0 3.0 0.00 0.00 0.00 94 1008.2
20260906060230 72 250 2.0 2.0 0.00 0.00 0.00 94 1008.2
20260906055725 73 244 1.0 1.0 0.00 0.00 0.00 93 1008.2
20260906055220 73 270 1.0 2.0 0.00 0.00 0.00 93 1008.3
20260906054715 73 259 2.0 2.0 0.00 0.00 0.00 93 1008.5
20260906054216 73 246 1.0 2.0 0.00 0.00 0.00 93 1008.4
20260906053713 73 254 3.0 3.0 0.00 0.00 0.00 93 1008.6
20260906053208 73 250 1.0 2.0 0.00 0.00 0.00 93 1008.6
20260906052703 73 254 1.0 1.0 0.00 0.00 0.00 92 1008.7
20260906052159 73 276 1.0 1.0 0.00 0.00 0.00 92 1008.8
20260906051656 73 276 0.0 0.0 0.00 0.00 0.00 92 1008.6
20260906051155 73 276 0.0 1.0 0.00 0.00 0.00 92 1008.7
20260906050651 73 276 0.0 0.0 0.00 0.00 0.00 93 1008.8
20260906050145 73 276 1.0 1.0 0.00 0.00 0.00 93 1008.7
20260906045644 73 276 0.0 1.0 0.00 0.00 0.00 93 1008.7
20260906045139 73 276 0.0 0.0 0.00 0.00 0.00 93 1008.5
20260906044635 73 276 0.0 0.0 0.00 0.00 0.00 92 1008.6
20260906044130 73 276 1.0 1.0 0.00 0.00 0.00 92 1008.7
20260906043627 73 277 0.0 0.0 0.00 0.00 0.00 92 1008.5
20260906043122 73 277 0.0 0.0 0.00 0.00 0.00 92 1008.6
20260906042621 73 277 0.0 1.0 0.00 0.00 0.00 92 1008.7
20260906042116 73 277 0.0 0.0 0.00 0.00 0.00 93 1009.0
20260906041612 73 278 0.0 0.0 0.00 0.00 0.00 92 1009.1
20260906041112 74 278 0.0 0.0 0.00 0.00 0.00 92 1009.1
20260906040607 73 277 1.0 1.0 0.00 0.00 0.00 91 1009.0
20260906035558 74 277 0.0 0.0 0.00 0.04 0.04 91 1009.0
20260906035054 74 277 0.0 0.0 0.00 0.04 0.04 91 1008.8
20260906034554 74 277 0.0 0.0 0.00 0.04 0.04 91 1008.9
20260906034048 74 277 0.0 0.0 0.00 0.04 0.04 91 1008.8
20260906033544 74 277 0.0 1.0 0.00 0.04 0.04 91 1008.9
20260906033039 74 277 0.0 0.0 0.00 0.04 0.04 92 1008.8
20260906032535 74 278 1.0 2.0 0.00 0.04 0.04 91 1009.0
20260906032030 74 250 1.0 1.0 0.00 0.04 0.04 92 1009.0
20260906031526 74 255 1.0 1.0 0.00 0.04 0.04 92 1009.0
20260906031021 74 244 1.0 2.0 0.00 0.04 0.04 91 1008.9
20260906030521 75 266 2.0 3.0 0.00 0.04 0.04 91 1009.1
20260906030020 75 252 1.0 2.0 0.00 0.04 0.04 91 1009.1
20260906025520 75 166 1.0 2.0 0.00 0.04 0.04 91 1009.3
20260906025018 75 173 1.0 2.0 0.00 0.04 0.04 91 1008.9
20260906024514 75 265 2.0 2.0 0.00 0.04 0.04 91 1008.9
20260906024014 75 301 0.0 0.0 0.00 0.04 0.04 91 1008.7
20260906023510 75 302 0.0 1.0 0.00 0.04 0.04 91 1008.7
20260906023004 75 302 1.0 1.0 0.00 0.04 0.04 91 1008.6
20260906022500 75 302 0.0 1.0 0.00 0.04 0.04 91 1008.7
20260906021955 75 304 0.0 0.0 0.00 0.04 0.04 90 1008.6
20260906021449 75 304 0.0 0.0 0.00 0.04 0.04 90 1008.6
20260906020944 75 304 0.0 0.0 0.00 0.04 0.04 91 1008.9
20260906020439 75 305 1.0 1.0 0.00 0.04 0.04 90 1008.6
20260906015939 75 245 0.0 0.0 0.00 0.04 0.04 90 1008.7
20260906015438 75 245 0.0 1.0 0.00 0.04 0.04 90 1008.6
20260906014938 75 246 0.0 0.0 0.00 0.04 0.04 90 1008.7
20260906014438 75 246 0.0 0.0 0.00 0.04 0.04 90 1008.6
20260906013934 75 264 1.0 1.0 0.00 0.04 0.04 89 1008.8
20260906013429 75 275 0.0 0.0 0.00 0.04 0.04 89 1008.7
20260906012925 75 186 0.0 0.0 0.00 0.04 0.04 89 1008.6
20260906012425 75 186 0.0 0.0 0.00 0.04 0.04 89 1008.4
20260906011924 75 186 1.0 1.0 0.00 0.04 0.04 89 1008.4
20260906011420 75 165 1.0 1.0 0.00 0.04 0.04 89 1008.4
20260906010915 75 249 2.0 3.0 0.00 0.04 0.04 89 1008.5
20260906010411 75 209 1.0 1.0 0.00 0.04 0.04 89 1008.3
20260906005907 76 244 1.0 2.0 0.00 0.04 0.04 89 1008.6
20260906005406 76 242 0.0 0.0 0.00 0.04 0.04 89 1008.5
20260906004905 76 244 1.0 1.0 0.00 0.04 0.04 89 1008.5
20260906004405 76 237 0.0 1.0 0.00 0.04 0.04 89 1008.4
20260906003900 76 264 3.0 3.0 0.00 0.04 0.04 89 1008.3
20260906003355 76 271 2.0 3.0 0.00 0.04 0.04 89 1008.3
20260906002851 76 298 2.0 3.0 0.00 0.04 0.04 89 1008.5
20260906002350 76 172 0.0 1.0 0.00 0.04 0.04 88 1008.5
20260906001846 77 207 1.0 1.0 0.00 0.04 0.04 87 1008.3
20260906001341 77 248 2.0 3.0 0.00 0.04 0.04 87 1008.3
20260906000836 77 302 1.0 2.0 0.00 0.04 0.04 85 1008.3
20260906000333 77 266 2.0 2.0 0.00 0.04 0.04 85 1008.2
20260905235831 78 257 0.0 1.0 0.00 0.04 0.04 84 1008.0
20260905235331 78 271 1.0 1.0 0.00 0.04 0.04 83 1007.8
20260905234826 78 191 1.0 1.0 0.00 0.04 0.04 83 1007.8
20260905234321 78 191 0.0 0.0 0.00 0.04 0.04 83 1008.0
20260905233816 78 191 1.0 1.0 0.00 0.04 0.04 82 1008.0
20260905233311 78 191 2.0 3.0 0.00 0.04 0.04 80 1007.8
20260905232811 78 190 1.0 1.0 0.00 0.04 0.04 79 1007.9
20260905232307 79 190 1.0 1.0 0.00 0.04 0.04 79 1007.8
20260905231803 79 190 1.0 1.0 0.00 0.04 0.04 82 1007.6
20260905231258 79 190 1.0 1.0 0.00 0.04 0.04 81 1007.6
20260905230754 80 190 0.0 0.0 0.00 0.04 0.04 80 1007.4
20260905230251 80 190 0.0 0.0 0.00 0.04 0.04 79 1007.4
20260905225751 80 190 0.0 0.0 0.00 0.04 0.04 76 1007.5
20260905225246 80 190 1.0 1.0 0.00 0.04 0.04 75 1007.4
20260905224745 80 188 2.0 3.0 0.00 0.04 0.04 77 1007.2
20260905224242 80 78 0.0 0.0 0.00 0.04 0.04 77 1007.3
20260905223737 79 145 0.0 0.0 0.00 0.04 0.04 80 1007.3
20260905223234 80 146 0.0 0.0 0.00 0.04 0.04 79 1007.2
20260905222729 80 145 0.0 0.0 0.00 0.04 0.04 79 1007.1
20260905222228 81 146 0.0 0.0 0.00 0.04 0.04 80 1007.1
20260905221724 79 140 1.0 1.0 0.00 0.04 0.04 81 1007.2
20260905221221 78 138 0.0 0.0 0.00 0.04 0.04 83 1007.1
20260905220717 77 136 0.0 0.0 0.00 0.04 0.04 84 1007.1
20260905220212 76 101 0.0 0.0 0.00 0.04 0.04 87 1006.9
20260905215712 76 77 0.0 0.0 0.00 0.04 0.04 87 1007.2
20260905215208 76 85 0.0 0.0 0.00 0.04 0.04 87 1007.1
20260905214703 77 148 0.0 0.0 0.00 0.04 0.04 86 1007.0
20260905214159 77 149 0.0 1.0 0.00 0.04 0.04 87 1007.3
20260905213654 75 72 0.0 0.0 0.00 0.04 0.04 89 1007.0
20260905213150 74 55 1.0 1.0 0.00 0.04 0.04 89 1007.1
20260905212644 74 97 0.0 1.0 0.00 0.04 0.04 92 1007.4
20260905212144 73 102 0.0 0.0 0.00 0.04 0.04 93 1007.7
20260905211639 74 58 1.0 2.0 0.07 0.04 0.04 94 1007.9
20260905211134 74 162 0.0 0.0 0.07 0.04 0.04 92 1008.1
20260905210631 74 275 2.0 2.0 0.05 0.03 0.03 89 1008.1
20260905210125 74 268 2.0 2.0 0.05 0.03 0.03 89 1008.2
20260905205624 74 279 0.0 0.0 0.07 0.02 0.02 88 1007.7
20260905205124 75 273 2.0 2.0 0.14 0.02 0.02 88 1008.2
20260905204623 76 256 2.0 2.0 0.07 0.01 0.01 84 1008.1
20260905204119 78 249 2.0 4.0 0.00 0.00 0.00 79 1008.5
20260905203619 80 236 2.0 2.0 0.00 0.00 0.00 72 1008.3
20260905203114 81 253 1.0 1.0 0.00 0.00 0.00 71 1008.3
20260905202610 82 113 1.0 2.0 0.00 0.00 0.00 68 1008.3
20260905202105 83 71 1.0 1.0 0.00 0.00 0.00 65 1007.9
20260905201600 84 207 5.0 8.0 0.00 0.00 0.00 62 1007.9
20260905201100 84 249 2.0 2.0 0.00 0.00 0.00 62 1007.7
20260905200555 86 291 6.0 9.0 0.00 0.00 0.00 62 1008.0
20260905200050 91 199 3.0 3.0 0.00 0.00 0.00 58 1007.7
20260905195550 92 330 5.0 8.0 0.00 0.00 0.00 55 1007.0
20260905195045 93 240 3.0 3.0 0.00 0.00 0.00 52 1006.8
20260905194545 94 236 4.0 7.0 0.00 0.00 0.00 50 1007.2
20260905194044 95 201 0.0 0.0 0.00 0.00 0.00 50 1007.3
20260905193539 96 304 2.0 3.0 0.00 0.00 0.00 48 1007.6
20260905193035 97 265 0.0 2.0 0.00 0.00 0.00 48 1007.5
20260905192529 96 112 0.0 1.0 0.00 0.00 0.00 48 1007.5
20260905192026 97 247 2.0 2.0 0.00 0.00 0.00 47 1007.4
20260905191525 98 76 0.0 0.0 0.00 0.00 0.00 47 1007.2
20260905191024 97 76 0.0 0.0 0.00 0.00 0.00 48 1007.1
20260905190522 98 55 0.0 1.0 0.00 0.00 0.00 49 1007.2
20260905190022 97 86 0.0 0.0 0.00 0.00 0.00 48 1007.4
20260905185521 96 220 0.0 0.0 0.00 0.00 0.00 48 1007.4
20260905185021 96 191 5.0 7.0 0.00 0.00 0.00 46 1007.7
20260905184521 95 164 0.0 1.0 0.00 0.00 0.00 48 1007.5
20260905184020 96 281 3.0 3.0 0.00 0.00 0.00 47 1007.6
20260905183520 96 79 0.0 0.0 0.00 0.00 0.00 50 1007.8
20260905183015 95 78 1.0 1.0 0.00 0.00 0.00 49 1007.7
20260905182515 97 70 2.0 3.0 0.00 0.00 0.00 47 1007.7
20260905182010 98 59 0.0 0.0 0.00 0.00 0.00 46 1007.8
20260905181510 96 216 1.0 1.0 0.00 0.00 0.00 48 1008.0
20260905181009 96 170 1.0 1.0 0.00 0.00 0.00 49 1008.1
20260905180504 96 238 2.0 2.0 0.00 0.00 0.00 50 1008.1
20260905175959 96 183 1.0 1.0 0.00 0.00 0.00 51 1008.4
20260905175458 98 157 0.0 0.0 0.00 0.00 0.00 49 1008.5
20260905174954 97 97 1.0 2.0 0.00 0.00 0.00 49 1008.5
20260905174449 95 159 0.0 0.0 0.00 0.00 0.00 52 1008.6
20260905173945 96 145 1.0 1.0 0.00 0.00 0.00 51 1008.5
20260905173441 97 20 1.0 1.0 0.00 0.00 0.00 50 1008.8
20260905172936 96 222 2.0 2.0 0.00 0.00 0.00 53 1009.0
20260905172434 95 337 2.0 2.0 0.00 0.00 0.00 53 1008.9
20260905171930 95 7 1.0 2.0 0.00 0.00 0.00 53 1009.1
20260905171427 95 257 4.0 4.0 0.00 0.00 0.00 51 1009.4
20260905170923 96 337 2.0 2.0 0.00 0.00 0.00 53 1009.4
20260905170419 96 89 0.0 0.0 0.00 0.00 0.00 56 1009.4
20260905165918 95 89 0.0 0.0 0.00 0.00 0.00 57 1009.5
20260905165413 94 87 0.0 0.0 0.00 0.00 0.00 59 1009.5
20260905164908 93 275 0.0 1.0 0.00 0.00 0.00 60 1009.6
20260905164403 94 202 1.0 2.0 0.00 0.00 0.00 58 1009.6
20260905163858 93 126 0.0 0.0 0.00 0.00 0.00 59 1009.8
20260905163355 94 257 2.0 3.0 0.00 0.00 0.00 60 1010.0
20260905162850 93 270 0.0 0.0 0.00 0.00 0.00 59 1009.8
20260905162350 94 126 0.0 0.0 0.00 0.00 0.00 58 1010.0
20260905161844 95 328 0.0 0.0 0.00 0.00 0.00 59 1010.0
20260905161344 94 172 0.0 0.0 0.00 0.00 0.00 61 1010.2
20260905160842 92 234 2.0 2.0 0.00 0.00 0.00 63 1010.1
20260905160337 91 331 0.0 0.0 0.00 0.00 0.00 63 1010.2
20260905155832 91 256 2.0 3.0 0.00 0.00 0.00 64 1010.1
20260905155331 91 205 1.0 2.0 0.00 0.00 0.00 64 1010.1
20260905154830 91 280 2.0 3.0 0.00 0.00 0.00 64 1010.2
20260905154326 90 213 0.0 0.0 0.00 0.00 0.00 67 1010.2
20260905153821 90 288 5.0 7.0 0.00 0.00 0.00 68 1010.3
20260905153318 90 347 0.0 0.0 0.00 0.00 0.00 66 1010.3
20260905152817 90 293 2.0 3.0 0.00 0.00 0.00 67 1010.1
20260905152316 89 271 4.0 6.0 0.00 0.00 0.00 68 1010.2
20260905151812 89 202 1.0 1.0 0.00 0.00 0.00 71 1010.3
20260905151308 88 259 2.0 2.0 0.00 0.00 0.00 71 1010.3
20260905150808 87 247 0.0 1.0 0.00 0.00 0.00 73 1010.2
20260905150308 87 264 2.0 3.0 0.00 0.00 0.00 73 1010.5
20260905145805 87 263 2.0 3.0 0.00 0.00 0.00 74 1010.5
20260905145259 86 197 0.0 1.0 0.00 0.00 0.00 75 1010.4
20260905144758 86 216 1.0 1.0 0.00 0.00 0.00 76 1010.3
20260905144254 85 276 1.0 1.0 0.00 0.00 0.00 77 1010.3
20260905143753 85 239 1.0 1.0 0.00 0.00 0.00 78 1010.5
20260905143253 84 276 0.0 1.0 0.00 0.00 0.00 78 1010.2
20260905142751 84 221 0.0 0.0 0.00 0.00 0.00 79 1010.2
20260905142245 84 223 2.0 2.0 0.00 0.00 0.00 81 1010.6
20260905141741 83 211 0.0 0.0 0.00 0.00 0.00 81 1010.3
20260905141237 83 245 6.0 8.0 0.00 0.00 0.00 80 1010.5
20260905140732 83 264 1.0 1.0 0.00 0.00 0.00 82 1010.6
20260905140227 82 264 3.0 4.0 0.00 0.00 0.00 83 1010.5
20260905135726 82 290 0.0 0.0 0.00 0.00 0.00 84 1010.5
20260905135222 82 269 3.0 4.0 0.00 0.00 0.00 84 1010.5
20260905134721 81 181 1.0 2.0 0.00 0.00 0.00 85 1010.8
20260905134221 81 159 1.0 1.0 0.00 0.00 0.00 86 1010.6
20260905133716 80 211 1.0 1.0 0.00 0.00 0.00 86 1010.8
20260905133211 80 251 1.0 2.0 0.00 0.00 0.00 87 1010.7
20260905132710 80 210 0.0 1.0 0.00 0.00 0.00 88 1010.8
20260905132206 80 280 2.0 2.0 0.00 0.00 0.00 88 1010.8
20260905131701 79 251 1.0 1.0 0.00 0.00 0.00 89 1010.9
20260905131156 79 201 1.0 2.0 0.00 0.00 0.00 90 1011.1
20260905130656 78 236 1.0 1.0 0.00 0.00 0.00 90 1010.9
20260905130150 78 248 0.0 1.0 0.00 0.00 0.00 91 1010.9
20260905125650 78 264 3.0 4.0 0.00 0.00 0.00 91 1010.9
20260905125146 78 253 2.0 3.0 0.00 0.00 0.00 92 1011.0
20260905124642 77 254 2.0 2.0 0.00 0.00 0.00 93 1011.0
20260905124138 77 238 1.0 2.0 0.00 0.00 0.00 93 1010.8
20260905123633 77 264 4.0 4.0 0.00 0.00 0.00 94 1010.7
20260905123130 77 271 2.0 2.0 0.00 0.00 0.00 94 1010.8
20260905122629 76 324 1.0 2.0 0.00 0.00 0.00 95 1011.0
20260905122124 76 274 3.0 3.0 0.00 0.00 0.00 95 1011.0
20260905121619 76 263 2.0 2.0 0.00 0.00 0.00 95 1010.7
20260905121114 76 259 0.0 0.0 0.00 0.00 0.00 95 1011.0
20260905120613 76 288 0.0 0.0 0.00 0.00 0.00 96 1010.8
20260905120109 75 145 0.0 0.0 0.00 0.00 0.00 96 1010.8
20260905115608 75 277 0.0 1.0 0.00 0.00 0.00 96 1010.8
20260905115102 75 210 0.0 0.0 0.00 0.00 0.00 96 1010.5
20260905114602 75 238 1.0 2.0 0.00 0.00 0.00 96 1010.7
20260905114101 75 167 0.0 0.0 0.00 0.00 0.00 96 1010.4
20260905113556 75 293 2.0 3.0 0.00 0.00 0.00 96 1010.5
20260905113051 75 242 2.0 2.0 0.00 0.00 0.00 96 1010.3
20260905112546 75 252 0.0 0.0 0.00 0.00 0.00 96 1010.3
20260905112042 75 224 0.0 0.0 0.00 0.00 0.00 96 1010.3
20260905111537 75 286 1.0 3.0 0.00 0.00 0.00 96 1010.1
20260905111036 75 260 0.0 0.0 0.00 0.00 0.00 96 1010.0
20260905110535 75 284 0.0 1.0 0.00 0.00 0.00 95 1010.1
20260905110031 75 273 0.0 0.0 0.00 0.00 0.00 95 1010.1
20260905105530 75 243 0.0 1.0 0.00 0.00 0.00 95 1010.0
20260905105030 76 288 0.0 0.0 0.00 0.00 0.00 95 1009.9
20260905104526 75 231 1.0 1.0 0.00 0.00 0.00 95 1009.8
20260905104025 76 197 0.0 0.0 0.00 0.00 0.00 94 1009.6
20260905103521 76 155 0.0 1.0 0.00 0.00 0.00 94 1009.6
20260905103017 76 250 0.0 0.0 0.00 0.00 0.00 94 1009.5
20260905102512 76 192 0.0 0.0 0.00 0.00 0.00 94 1009.6
20260905102009 76 286 2.0 3.0 0.00 0.00 0.00 94 1009.1
20260905101507 76 190 0.0 0.0 0.00 0.00 0.00 93 1009.5
20260905101005 76 200 0.0 0.0 0.00 0.00 0.00 93 1009.3
20260905100502 76 293 0.0 0.0 0.00 0.00 0.00 93 1009.3
20260905100001 76 275 1.0 2.0 0.00 0.00 0.00 93 1009.3
20260905095456 77 279 0.0 0.0 0.00 0.00 0.00 92 1009.3
20260905094951 77 289 0.0 1.0 0.00 0.00 0.00 92 1009.3
20260905094446 77 249 0.0 0.0 0.00 0.00 0.00 91 1009.3
20260905093945 77 245 1.0 2.0 0.00 0.00 0.00 91 1009.5
20260905093440 77 256 2.0 2.0 0.00 0.00 0.00 90 1009.4
20260905092936 77 243 0.0 0.0 0.00 0.00 0.00 90 1009.0
20260905092431 77 275 0.0 1.0 0.00 0.00 0.00 90 1009.1
20260905091926 77 256 2.0 2.0 0.00 0.00 0.00 90 1009.4
20260905091421 77 164 0.0 1.0 0.00 0.00 0.00 90 1009.1
20260905090920 77 253 2.0 2.0 0.00 0.00 0.00 90 1009.3
20260905090416 77 209 1.0 1.0 0.00 0.00 0.00 90 1009.7
20260905085914 77 211 1.0 1.0 0.00 0.00 0.00 90 1009.5
20260905085409 78 278 1.0 2.0 0.00 0.00 0.00 90 1009.5
20260905084905 78 266 2.0 2.0 0.00 0.00 0.00 90 1009.6
20260905084404 78 196 1.0 2.0 0.00 0.00 0.00 90 1009.6
20260905083859 78 187 1.0 1.0 0.00 0.00 0.00 90 1009.6
20260905083354 78 263 3.0 3.0 0.00 0.00 0.00 90 1009.7
20260905082850 78 215 1.0 1.0 0.00 0.00 0.00 90 1009.6
20260905082346 78 204 1.0 2.0 0.00 0.00 0.00 89 1009.8
20260905081841 78 253 1.0 2.0 0.00 0.00 0.00 89 1010.0
20260905081336 78 218 2.0 2.0 0.00 0.00 0.00 89 1009.9
20260905080835 78 274 2.0 2.0 0.00 0.00 0.00 89 1009.9
20260905080335 78 284 2.0 2.0 0.00 0.00 0.00 89 1010.0
20260905075833 78 211 2.0 3.0 0.00 0.00 0.00 89 1010.1
20260905075328 78 228 1.0 1.0 0.00 0.00 0.00 88 1010.1
20260905074827 78 274 2.0 3.0 0.00 0.00 0.00 88 1010.1
20260905074323 78 227 0.0 1.0 0.00 0.00 0.00 88 1010.1
20260905073819 78 260 0.0 1.0 0.00 0.00 0.00 88 1010.0
20260905073317 78 184 1.0 1.0 0.00 0.00 0.00 87 1010.1
20260905072814 78 276 2.0 2.0 0.00 0.00 0.00 87 1010.0
20260905072309 79 251 2.0 2.0 0.00 0.00 0.00 87 1010.1
20260905071805 79 216 0.0 1.0 0.00 0.00 0.00 86 1010.1
20260905071302 79 238 2.0 2.0 0.00 0.00 0.00 86 1010.0
20260905070756 79 217 1.0 1.0 0.00 0.00 0.00 86 1010.3
20260905070253 79 277 2.0 2.0 0.00 0.00 0.00 86 1010.2
20260905065751 79 280 3.0 3.0 0.00 0.00 0.00 85 1010.3
20260905065250 79 263 1.0 2.0 0.00 0.00 0.00 85 1010.4